Regional Weather Roundup
Issued by NWS Wilmington, NC

Home | Current Version | Previous Version | Text Only | Print | Product List | Glossary On
Versions: 1 2 3 4 5 6 7 8 9 10 11 12 13 14 15 16 17 18 19 20 21 22 23 24 25 26 27
000
ASUS42 KILM 302112
RWRILM
RWRILM
REGIONAL HOURLY WEATHER ROUNDUP
NATIONAL WEATHER SERVICE WILMINGTON NC
500 PM EDT THU MAR 30 2017

NOTE: "FAIR" INDICATES FEW OR NO CLOUDS BELOW 12,000 FEET WITH NO
SIGNIFICANT WEATHER AND/OR OBSTRUCTIONS TO VISIBILITY.

...............WFO WILMINGTON COUNTY WARNING AREA...............

......COASTAL NC AND SC COUNTIES......

CITY           SKY/WX    TMP DP  RH WIND       PRES   REMARKS
WILMINGTON     SUNNY     68  57  68 E15G22    30.05F
N MYRTLE BEACH LGT RAIN  66  59  78 E10       30.02F
MYRTLE BEACH   CLOUDY    64  59  82 E9        30.03F

......INLAND NC AND SC COUNTIES.......

CITY           SKY/WX    TMP DP  RH WIND       PRES   REMARKS
LUMBERTON      CLOUDY    73  55  53 SE12      29.99S
ELIZABETHTOWN  PTSUNNY   72  54  53 SE10G20   30.01S
WHITEVILLE     CLOUDY    73  53  49 SE14G20   30.02R
FLORENCE       PTSUNNY   73  58  59 SE15G26   29.99R
DARLINGTON     CLOUDY    73  58  59 SE17      29.98R
KINGSTREE      PTSUNNY   70  57  64 E12       30.00S
HARTSVILLE     PTSUNNY   72  55  56 SE15G23   29.98R
BENNETTSVILLE  FAIR      75  57  53 SE14G23   29.97S
CONWAY         LGT RAIN  68  57  68 SE6       30.02S
GEORGETOWN     CLOUDY    64  63  94 SE8       30.02F
MARION         PTSUNNY   70  55  60 SE14G21   30.00S

....................REST OF NORTH CAROLINA......................

.........EASTERN NC.........

CITY           SKY/WX    TMP DP  RH WIND       PRES   REMARKS
CAPE HATTERAS  MOSUNNY   64  46  52 E10       30.09F
JACKSONVILLE   PTSUNNY   71  54  54 SE12      30.04F
MOREHEAD CITY  PTSUNNY   67  57  70 E8        30.07F
KENANSVILLE    MOSUNNY   72  52  49 SE8G21    30.02F
NEW BERN       PTSUNNY   67  51  56 E7        30.08F
ELIZABETH CITY CLOUDY    58  43  57 E10G21    30.12F

.........CENTRAL NC.........

CITY           SKY/WX    TMP DP  RH WIND       PRES   REMARKS
RALEIGH DURHAM CLOUDY    65  45  48 SE12      30.03F
ROCKY MOUNT    MOSUNNY   67  46  47 SE12G21   30.05F
ROANOKE RAPIDS NOT AVBL
FAYETTEVILLE   CLOUDY    74  52  46 SE13      29.98F
HOFFMAN        MOSUNNY   73  55  52 SE12      29.97F

.........WESTERN NC.........

CITY           SKY/WX    TMP DP  RH WIND       PRES   REMARKS
CHARLOTTE      CLOUDY    68  56  65 SE9       29.96F
GREENSBORO     CLOUDY    63  46  54 SE9       29.99F
HICKORY        NOT AVBL
BOONE          NOT AVBL
ASHEVILLE      NOT AVBL

.....................REST OF SOUTH CAROLINA.....................

.........EASTERN SC.........

CITY           SKY/WX    TMP DP  RH WIND       PRES   REMARKS
CHARLESTON     CLOUDY    69  63  81 SE14      29.98F
BEAUFORT MCAS  CLOUDY    71  66  84 E14       29.95F
HILTON HEAD    NOT AVBL

.........CENTRAL SC.........

CITY           SKY/WX    TMP DP  RH WIND       PRES   REMARKS
COLUMBIA       CLOUDY    69  65  86 SE10      29.93F
ORANGEBURG     RAIN      67  65  93 SE6       29.96F FOG
SUMTER SHAW    LGT RAIN  69  62  78 SE10      29.94F

.........WESTERN SC.........

CITY           SKY/WX    TMP DP  RH WIND       PRES   REMARKS
GREENVILLE     NOT AVBL
ROCK HILL      LGT RAIN  67  59  75 VRB3      29.95F
ANDERSON       MOSUNNY   74  63  68 E8        29.88F
CLEMSON        NOT AVBL
GREENWOOD      TSTM      70  65  84 CALM      29.90F


...................COASTAL AND OFFSHORE REPORTS..................

................LOCAL PIERS AND NC RESERVE................


STATION/POSITION TIME  SKY/WX   TEMP    WIND        PRES    VSBY
                                AIR SEA DIR/SP/G
                 (UTC)          (F)     (DEG/KT/KT) (MB)    (MI)
JOHNY MRCER PIER 2048            60 63   60/ 13/ 14 1016.7F
NC RESRV MASNBRO 1945            63      90/ 10     1017.0
OCEAN CREST PIER NOT AVBL
SPRINGMAID  PIER 2048                               1016.2F


................COASTAL AND OFFSHORE BUOYS................


STATION/POSITION TIME  SKY/WX   TEMP    WIND        PRES    VSBY
                                AIR SEA DIR/SP/G
                 (UTC)          (F)     (DEG/KT/KT) (MB)    (MI)
DIMNDSHOAL 41025 2050            66 77  140/ 12/ 16 1018.4F
WVE H/P(F/S)=  5/ 9 SWL H/P/D(F/S/D)=  5/ 60/ 9

CAPE LOOKOUT     2000            62      40/ 14/ 16 1018.4F
ONSLOW BAY 41036 NOT AVBL
ONSLOW BAY 41064 2008            63      70/ 14/ 19 1018.0F
ONSLOW BAY 41159 2043               64                N/A
WVE H/P(F/S)=  5/ 8 SWL H/P/D(F/S/D)=  2/100/11

MASNBO INL 41110 2059               59                N/A
WVE H/P(F/S)=  5/ 5 SWL H/P/D(F/S/D)=  2/110/11

WILM HARBR 41108 2047               61                N/A
WVE H/P(F/S)=  3/ 6 SWL H/P/D(F/S/D)=  2/160/14

27SE WRITB 41037 2008            70 73  140/ 16/ 21 1016.4F
FRYING PAN 41013 2050            70 75  120/ 17/ 21 1016.8F
WVE H/P(F/S)=  5/ 9 SWL H/P/D(F/S/D)=  3/120/ 9

SUNST NRSH 41024 NOT AVBL
CAPRS NRSH 41029 NOT AVBL
EDISTO     41004 2050            67 72  130/ 16/ 19 1015.5F
WVE H/P(F/S)=  5/ 5 SWL H/P/D(F/S/D)=  3/120/ 9



..........OFFSHORE BUOYS BEYOND 100 NM OFFSHORE...........
.....IN A TRIANGLE---HAT TO BERMUDA TO BAHAMAS TO HAT.....


STATION/POSITION TIME  SKY/WX   TEMP    WIND        PRES    VSBY
                                AIR SEA DIR/SP/G
                 (UTC)          (F)     (DEG/KT/KT) (MB)    (MI)
150E HAT   41001 NOT AVBL
W BERMUDA  41048 2050            63 68   10/ 10/ 14 1018.6S
WVE H/P(F/S)=  8/ 8 SWL H/P/D(F/S/D)=  8/360/ 8

ATLANTIC S 41049 2050            67 72  330/ 14/ 16 1015.1R
WVE H/P(F/S)=  7/11 SWL H/P/D(F/S/D)=  5/ 50/11

E BAHAMAS  41046 NOT AVBL
NE BAHAMAS 41047 2050            71 72   40/ 10/ 12 1017.0R
WVE H/P(F/S)=  6/12 SWL H/P/D(F/S/D)=  5/ 70/12

120E CANVRL41010 NOT AVBL

END




USA.gov is the U.S. government's official web portal to all federal, state and local government web resources and services.